This is the latest recevied weather packets stored in our database for station/object DM1HF-13. If no packets are shown the sender has not sent any weather packets the latest 1 day(s).
| Time | Temp. | Humidity | Pressure | Rain* | Wind** | Luminosity | Snow |
|---|---|---|---|---|---|---|---|
| 1777992316 | 20° C | 64% | 1009.2 hPa | 0 mm | 1.79 m/s, 332° | 115 W/m² | - |
| 1777992016 | 20° C | 63% | 1009.2 hPa | 0 mm | 1.34 m/s, 355° | 119 W/m² | - |
| 1777991716 | 20.56° C | 62% | 1009.3 hPa | 0 mm | 0.45 m/s, 316° | 123 W/m² | - |
| 1777991416 | 20° C | 63% | 1009.3 hPa | 0 mm | 0.45 m/s, 308° | 143 W/m² | - |
| 1777991116 | 20° C | 62% | 1009.4 hPa | 0 mm | 0.45 m/s, 275° | 179 W/m² | - |
| 1777990816 | 20° C | 63% | 1009.4 hPa | 0 mm | 1.79 m/s, 343° | 356 W/m² | - |
| 1777990516 | 20.56° C | 62% | 1009.5 hPa | 0 mm | 1.79 m/s, 332° | 262 W/m² | - |
| 1777990216 | 20° C | 64% | 1009.5 hPa | 0 mm | 0.89 m/s, 311° | 221 W/m² | - |
| 1777989916 | 20° C | 65% | 1009.6 hPa | 0 mm | 1.34 m/s, 344° | 249 W/m² | - |
| 1777989616 | 19.44° C | 64% | 1009.6 hPa | 0 mm | 0.89 m/s, 36° | 232 W/m² | - |
| 1777989316 | 20° C | 64% | 1009.8 hPa | 0 mm | 1.79 m/s, 335° | 220 W/m² | - |
| 1777989016 | 20° C | 65% | 1009.7 hPa | 0 mm | 0.89 m/s, 271° | 198 W/m² | - |
| 1777988716 | 19.44° C | 64% | 1009.8 hPa | 0 mm | 1.34 m/s, 255° | 190 W/m² | - |
| 1777988416 | 20° C | 62% | 1009.9 hPa | 0 mm | 0.89 m/s, 146° | 212 W/m² | - |
| 1777988116 | 19.44° C | 65% | 1009.8 hPa | 0 mm | 0.89 m/s, 269° | 201 W/m² | - |
| 1777987816 | 19.44° C | 63% | 1009.8 hPa | 0 mm | 1.79 m/s, 345° | 179 W/m² | - |
| 1777987516 | 19.44° C | 63% | 1009.9 hPa | 0 mm | 1.34 m/s, 302° | 173 W/m² | - |
| 1777987216 | 19.44° C | 65% | 1009.9 hPa | 0 mm | 0.89 m/s, 280° | 189 W/m² | - |
| 1777986916 | 20° C | 64% | 1009.9 hPa | 0 mm | 1.34 m/s, 291° | 213 W/m² | - |
| 1777986616 | 20° C | 66% | 1010.1 hPa | 0 mm | 0.45 m/s, 235° | 217 W/m² | - |
| 1777986316 | 20° C | 65% | 1010 hPa | 0 mm | 0.45 m/s, 322° | 203 W/m² | - |
| 1777986016 | 19.44° C | 63% | 1010 hPa | 0 mm | 1.34 m/s, 277° | 180 W/m² | - |
| 1777985716 | 20° C | 65% | 1010.1 hPa | 0 mm | 0.45 m/s, 344° | 169 W/m² | - |
| 1777985417 | 20° C | 64% | 1010.2 hPa | 0 mm | 1.34 m/s, 321° | 168 W/m² | - |
| 1777985116 | 20° C | 63% | 1010.2 hPa | 0 mm | 1.79 m/s, 352° | 220 W/m² | - |
* Rain latest hour (hover to see other rain measurements)
** Current wind speed in m/s (hover to see current wind gust speed)